CDG5CU EGKK-EDDF

Flight info

Callsign CDG5CU
Flight time 1h 3m
Altitude 35000
Route DVR UL9 KONAN UL607 KOK DCT REMBA UL607 SPI T180 NIVNU/N0399F230 T847 IMCOM IMCOM1B
Aircraft A20N/M-SDE2E3FGHIRWXY/LB1

Departure

Time 2026-05-04 14:03
Airport London Gatwick Airport (EGKK)

Arrival

Time 2026-05-04 15:06
Airport Frankfurt Main Airport (EDDF)
Time Latitude Longitude Altitude Speed Heading
2026-05-04 13:23 51.16186 -0.18081 208 ft 0 kts 77°
2026-05-04 13:45 51.16184 -0.18090 208 ft 4 kts 77°
2026-05-04 13:45 51.16179 -0.18132 218 ft 4 kts 83°
2026-05-04 13:45 51.16179 -0.18173 218 ft 4 kts 108°
2026-05-04 13:45 51.16190 -0.18198 220 ft 1 kts 167°
2026-05-04 13:50 51.16183 -0.18196 220 ft 2 kts 168°
2026-05-04 13:50 51.16168 -0.18191 212 ft 3 kts 168°
2026-05-04 13:50 51.16144 -0.18182 216 ft 4 kts 168°
2026-05-04 13:51 51.16110 -0.18171 210 ft 6 kts 168°
2026-05-04 13:51 51.16069 -0.18157 212 ft 5 kts 168°
2026-05-04 13:51 51.16067 -0.18156 212 ft 0 kts 168°
2026-05-04 13:52 51.15993 -0.18130 213 ft 10 kts 166°
2026-05-04 13:52 51.15924 -0.18104 210 ft 10 kts 169°
2026-05-04 13:52 51.15850 -0.18080 210 ft 12 kts 167°
2026-05-04 13:53 51.15767 -0.18051 208 ft 12 kts 168°
2026-05-04 13:53 51.15700 -0.18042 208 ft 9 kts 211°
2026-05-04 13:53 51.15676 -0.18130 218 ft 9 kts 257°
2026-05-04 13:54 51.15636 -0.18349 211 ft 11 kts 217°
2026-05-04 13:54 51.15564 -0.18336 210 ft 11 kts 165°
2026-05-04 13:54 51.15396 -0.18280 208 ft 14 kts 168°
2026-05-04 13:55 51.15313 -0.18251 219 ft 9 kts 167°
2026-05-04 13:55 51.15260 -0.18231 215 ft 0 kts 167°
2026-05-04 13:56 51.15259 -0.18231 216 ft 1 kts 167°
2026-05-04 13:56 51.15244 -0.18225 214 ft 5 kts 167°
2026-05-04 13:56 51.15182 -0.18333 211 ft 12 kts 259°
2026-05-04 13:57 51.15165 -0.18466 211 ft 13 kts 258°
2026-05-04 13:57 51.15145 -0.18612 208 ft 14 kts 258°
2026-05-04 13:58 51.15078 -0.19115 212 ft 17 kts 258°
2026-05-04 13:58 51.15025 -0.19505 217 ft 19 kts 258°
2026-05-04 13:58 51.14993 -0.19731 210 ft 23 kts 257°
2026-05-04 13:59 51.14956 -0.20003 217 ft 27 kts 257°
2026-05-04 13:59 51.14916 -0.20293 206 ft 21 kts 258°
2026-05-04 13:59 51.14861 -0.20697 205 ft 21 kts 258°
2026-05-04 14:00 51.14828 -0.20933 208 ft 20 kts 258°
2026-05-04 14:00 51.14784 -0.21189 207 ft 13 kts 250°
2026-05-04 14:00 51.14760 -0.21346 205 ft 13 kts 258°
2026-05-04 14:01 51.14714 -0.21401 211 ft 5 kts 163°
2026-05-04 14:01 51.14667 -0.21364 214 ft 10 kts 135°
2026-05-04 14:01 51.14617 -0.21324 209 ft 3 kts 168°
2026-05-04 14:02 51.14589 -0.21314 210 ft 6 kts 166°
2026-05-04 14:02 51.14516 -0.21165 212 ft 28 kts 89°
2026-05-04 14:02 51.14593 -0.20601 213 ft 90 kts 77°
2026-05-04 14:02 51.14784 -0.19218 234 ft 159 kts 77°
2026-05-04 14:03 51.15034 -0.17456 934 ft 160 kts 77°
2026-05-04 14:03 51.15286 -0.15688 1759 ft 178 kts 78°
2026-05-04 14:03 51.15554 -0.13570 2365 ft 212 kts 78°
2026-05-04 14:03 51.15861 -0.11102 2970 ft 247 kts 78°
2026-05-04 14:04 51.16641 -0.05511 5101 ft 263 kts 78°
2026-05-04 14:04 51.16845 -0.02580 6121 ft 270 kts 89°
2026-05-04 14:04 51.16837 0.00439 7284 ft 275 kts 91°
2026-05-04 14:05 51.16723 0.06645 9701 ft 284 kts 92°
2026-05-04 14:05 51.16661 0.09821 10817 ft 289 kts 93°
2026-05-04 14:05 51.16598 0.13054 11936 ft 294 kts 93°
2026-05-04 14:06 51.16563 0.16346 13087 ft 300 kts 91°
2026-05-04 14:06 51.16563 0.19701 14205 ft 306 kts 91°
2026-05-04 14:06 51.16570 0.23119 15235 ft 310 kts 91°
2026-05-04 14:06 51.16577 0.26578 16171 ft 314 kts 92°
2026-05-04 14:07 51.16583 0.30037 16765 ft 317 kts 92°
2026-05-04 14:07 51.16587 0.33573 17386 ft 322 kts 92°
2026-05-04 14:07 51.16588 0.37165 18382 ft 326 kts 92°
2026-05-04 14:07 51.16587 0.40793 19276 ft 330 kts 92°
2026-05-04 14:08 51.16585 0.44471 20119 ft 337 kts 92°
2026-05-04 14:08 51.16582 0.48262 20945 ft 343 kts 92°
2026-05-04 14:08 51.16579 0.52120 21553 ft 357 kts 92°
2026-05-04 14:08 51.16573 0.56186 21902 ft 376 kts 92°
2026-05-04 14:09 51.16561 0.64912 22655 ft 409 kts 92°
2026-05-04 14:09 51.16556 0.69494 23277 ft 417 kts 92°
2026-05-04 14:10 51.16542 0.78854 24506 ft 427 kts 92°
2026-05-04 14:10 51.16531 0.83607 25119 ft 431 kts 92°
2026-05-04 14:10 51.16518 0.88396 25714 ft 435 kts 93°
2026-05-04 14:10 51.16502 0.93233 26303 ft 438 kts 93°
2026-05-04 14:11 51.16483 0.98103 26941 ft 440 kts 93°
2026-05-04 14:11 51.16439 1.07896 28108 ft 446 kts 93°
2026-05-04 14:11 51.16413 1.12791 28609 ft 449 kts 93°
2026-05-04 14:12 51.16384 1.17786 29124 ft 453 kts 93°
2026-05-04 14:12 51.16354 1.22822 29622 ft 456 kts 93°
2026-05-04 14:12 51.16285 1.33015 30541 ft 462 kts 94°
2026-05-04 14:13 51.16202 1.38128 31110 ft 460 kts 96°
2026-05-04 14:13 51.16016 1.43208 31677 ft 458 kts 97°
2026-05-04 14:13 51.15772 1.48266 32219 ft 457 kts 98°
2026-05-04 14:13 51.15505 1.53304 32727 ft 456 kts 99°
2026-05-04 14:14 51.15233 1.58336 33241 ft 456 kts 99°
2026-05-04 14:14 51.14706 1.68332 34193 ft 455 kts 99°
2026-05-04 14:14 51.14448 1.73360 34609 ft 455 kts 98°
2026-05-04 14:15 51.13936 1.83423 34990 ft 457 kts 98°
2026-05-04 14:15 51.13420 1.93511 34988 ft 457 kts 98°
2026-05-04 14:16 51.12625 2.08655 34995 ft 458 kts 99°
2026-05-04 14:17 51.11809 2.23802 34995 ft 457 kts 99°
2026-05-04 14:18 51.10977 2.38876 34988 ft 457 kts 99°
2026-05-04 14:19 51.09832 2.59054 34993 ft 458 kts 99°
2026-05-04 14:19 51.08745 2.68950 34995 ft 452 kts 109°
2026-05-04 14:20 51.07098 2.78597 34991 ft 451 kts 110°
2026-05-04 14:20 51.05346 2.88160 34992 ft 451 kts 111°
2026-05-04 14:21 51.02695 3.02506 34998 ft 451 kts 111°
2026-05-04 14:21 51.00946 3.11994 34980 ft 451 kts 111°
2026-05-04 14:22 50.99180 3.21542 34979 ft 451 kts 111°
2026-05-04 14:22 50.97409 3.31075 34955 ft 451 kts 111°
2026-05-04 14:23 50.94728 3.45402 34968 ft 452 kts 111°
2026-05-04 14:24 50.92930 3.54952 34965 ft 452 kts 111°
2026-05-04 14:24 50.91126 3.64486 34963 ft 451 kts 111°
2026-05-04 14:25 50.89312 3.74021 34962 ft 451 kts 111°
2026-05-04 14:25 50.86579 3.88293 34965 ft 453 kts 112°
2026-05-04 14:26 50.84753 3.97773 34972 ft 453 kts 112°
2026-05-04 14:26 50.82909 4.07300 34976 ft 453 kts 112°
2026-05-04 14:27 50.81055 4.16834 34984 ft 453 kts 112°
2026-05-04 14:27 50.79194 4.26352 34985 ft 453 kts 112°
2026-05-04 14:28 50.77330 4.35840 34989 ft 452 kts 112°
2026-05-04 14:28 50.75459 4.45317 34989 ft 451 kts 112°
2026-05-04 14:29 50.71699 4.64213 34985 ft 451 kts 112°
2026-05-04 14:30 50.70123 4.72085 34979 ft 452 kts 112°
2026-05-04 14:31 50.67266 4.86264 34980 ft 452 kts 113°
2026-05-04 14:32 50.63430 5.05065 34980 ft 452 kts 113°
2026-05-04 14:32 50.61484 5.14495 34959 ft 452 kts 113°
2026-05-04 14:33 50.59520 5.23970 34981 ft 455 kts 113°
2026-05-04 14:33 50.57549 5.33441 34978 ft 455 kts 113°
2026-05-04 14:34 50.55598 5.42791 34445 ft 449 kts 114°
2026-05-04 14:34 50.54605 5.47526 33975 ft 451 kts 114°
2026-05-04 14:34 50.53630 5.52157 33475 ft 453 kts 114°
2026-05-04 14:34 50.52634 5.56872 32979 ft 454 kts 114°
2026-05-04 14:35 50.51639 5.61585 32481 ft 456 kts 113°
2026-05-04 14:35 50.50684 5.66359 32008 ft 458 kts 112°
2026-05-04 14:35 50.49773 5.71168 31546 ft 459 kts 111°
2026-05-04 14:35 50.48882 5.75990 31092 ft 460 kts 111°
2026-05-04 14:36 50.47995 5.80815 30643 ft 460 kts 111°
2026-05-04 14:36 50.47103 5.85652 30201 ft 461 kts 111°
2026-05-04 14:36 50.46204 5.90485 29713 ft 461 kts 111°
2026-05-04 14:36 50.45299 5.95313 29215 ft 462 kts 111°
2026-05-04 14:37 50.44385 6.00156 28715 ft 463 kts 111°
2026-05-04 14:37 50.43464 6.05009 28202 ft 465 kts 110°
2026-05-04 14:37 50.42539 6.09867 27725 ft 466 kts 110°
2026-05-04 14:37 50.41607 6.14752 27244 ft 467 kts 110°
2026-05-04 14:38 50.40676 6.19620 26444 ft 465 kts 110°
2026-05-04 14:38 50.39766 6.24377 25778 ft 459 kts 110°
2026-05-04 14:38 50.38856 6.29127 25092 ft 452 kts 110°
2026-05-04 14:38 50.37953 6.33822 24395 ft 447 kts 110°
2026-05-04 14:39 50.37065 6.38429 23726 ft 442 kts 110°
2026-05-04 14:39 50.36176 6.43041 22959 ft 437 kts 110°
2026-05-04 14:39 50.35301 6.47568 22170 ft 432 kts 110°
2026-05-04 14:40 50.33571 6.56476 20619 ft 423 kts 110°
2026-05-04 14:40 50.32716 6.60865 19906 ft 418 kts 110°
2026-05-04 14:40 50.31870 6.65193 19202 ft 413 kts 110°
2026-05-04 14:40 50.31033 6.69466 18504 ft 409 kts 110°
2026-05-04 14:41 50.30205 6.73688 17758 ft 404 kts 110°
2026-05-04 14:41 50.29380 6.77883 16987 ft 399 kts 110°
2026-05-04 14:41 50.27758 6.86097 15483 ft 391 kts 110°
2026-05-04 14:42 50.26179 6.94068 14083 ft 382 kts 110°
2026-05-04 14:42 50.25396 6.98010 13375 ft 376 kts 110°
2026-05-04 14:42 50.24622 7.01896 12557 ft 373 kts 110°
2026-05-04 14:43 50.23853 7.05751 11773 ft 370 kts 110°
2026-05-04 14:43 50.23089 7.09571 11239 ft 368 kts 110°
2026-05-04 14:43 50.22323 7.13391 11011 ft 368 kts 110°
2026-05-04 14:43 50.21557 7.17207 10990 ft 367 kts 110°
2026-05-04 14:44 50.20789 7.21020 10997 ft 367 kts 110°
2026-05-04 14:44 50.20023 7.24823 10997 ft 366 kts 110°
2026-05-04 14:44 50.19258 7.28610 10996 ft 366 kts 110°
2026-05-04 14:44 50.18490 7.32404 10993 ft 367 kts 111°
2026-05-04 14:45 50.17720 7.36210 10982 ft 368 kts 111°
2026-05-04 14:45 50.16952 7.40012 10991 ft 367 kts 111°
2026-05-04 14:45 50.16189 7.43761 10997 ft 367 kts 111°
2026-05-04 14:45 50.15416 7.47549 11009 ft 367 kts 111°
2026-05-04 14:46 50.14641 7.51336 10997 ft 367 kts 111°
2026-05-04 14:46 50.13867 7.55115 10994 ft 366 kts 111°
2026-05-04 14:46 50.13090 7.58907 10995 ft 366 kts 111°
2026-05-04 14:46 50.12493 7.62786 10996 ft 371 kts 101°
2026-05-04 14:47 50.12372 7.66815 10994 ft 373 kts 97°
2026-05-04 14:47 50.12139 7.70833 10993 ft 371 kts 101°
2026-05-04 14:47 50.11386 7.74611 10991 ft 363 kts 120°
2026-05-04 14:47 50.09968 7.77801 10994 ft 357 kts 134°
2026-05-04 14:48 50.08288 7.80632 10988 ft 356 kts 137°
2026-05-04 14:48 50.06560 7.83395 10990 ft 356 kts 137°
2026-05-04 14:48 50.04869 7.86216 10965 ft 357 kts 133°
2026-05-04 14:48 50.03517 7.89408 10511 ft 353 kts 119°
2026-05-04 14:49 50.02802 7.93004 10215 ft 344 kts 102°
2026-05-04 14:49 50.02853 7.96666 9984 ft 336 kts 83°
2026-05-04 14:49 50.03430 8.00086 9774 ft 324 kts 76°
2026-05-04 14:49 50.04107 8.03359 9566 ft 312 kts 75°
2026-05-04 14:50 50.04779 8.06516 9264 ft 303 kts 75°
2026-05-04 14:50 50.05437 8.09604 9037 ft 298 kts 75°
2026-05-04 14:50 50.06085 8.12669 9013 ft 298 kts 75°
2026-05-04 14:50 50.06732 8.15738 9009 ft 299 kts 75°
2026-05-04 14:51 50.07376 8.18802 9005 ft 299 kts 76°
2026-05-04 14:51 50.08023 8.21884 9006 ft 299 kts 75°
2026-05-04 14:51 50.08667 8.24952 8988 ft 299 kts 75°
2026-05-04 14:51 50.09310 8.28024 9004 ft 297 kts 75°
2026-05-04 14:52 50.09949 8.31076 9005 ft 295 kts 75°
2026-05-04 14:52 50.10582 8.34109 9004 ft 294 kts 75°
2026-05-04 14:52 50.11215 8.37148 9010 ft 294 kts 75°
2026-05-04 14:52 50.11845 8.40176 8799 ft 293 kts 75°
2026-05-04 14:53 50.12470 8.43186 8337 ft 291 kts 74°
2026-05-04 14:53 50.13091 8.46181 7884 ft 289 kts 74°
2026-05-04 14:53 50.13690 8.49071 7428 ft 289 kts 74°
2026-05-04 14:53 50.14317 8.52102 6975 ft 288 kts 74°
2026-05-04 14:54 50.14926 8.55049 6544 ft 287 kts 73°
2026-05-04 14:54 50.15543 8.58041 6078 ft 286 kts 73°
2026-05-04 14:54 50.16141 8.60948 5727 ft 284 kts 73°
2026-05-04 14:54 50.16737 8.63878 5443 ft 282 kts 73°
2026-05-04 14:55 50.17330 8.66803 5150 ft 282 kts 72°
2026-05-04 14:55 50.17936 8.69713 4894 ft 280 kts 72°
2026-05-04 14:55 50.18531 8.72606 4587 ft 280 kts 72°
2026-05-04 14:55 50.19119 8.75476 4170 ft 278 kts 72°
2026-05-04 14:56 50.19690 8.78270 3999 ft 267 kts 72°
2026-05-04 14:56 50.20235 8.80940 3993 ft 251 kts 72°
2026-05-04 14:56 50.20756 8.83495 3994 ft 245 kts 72°
2026-05-04 14:56 50.21273 8.86035 4005 ft 245 kts 71°
2026-05-04 14:57 50.21826 8.88549 3998 ft 245 kts 70°
2026-05-04 14:57 50.22405 8.91049 4001 ft 245 kts 70°
2026-05-04 14:57 50.22989 8.93550 3999 ft 245 kts 70°
2026-05-04 14:57 50.23268 8.96146 4005 ft 244 kts 96°
2026-05-04 14:58 50.22688 8.98595 3999 ft 240 kts 128°
2026-05-04 14:58 50.21427 9.00200 4003 ft 235 kts 156°
2026-05-04 14:58 50.19913 9.01169 4004 ft 236 kts 163°
2026-05-04 14:58 50.18358 9.02024 4002 ft 237 kts 163°
2026-05-04 14:59 50.16803 9.02723 3998 ft 233 kts 178°
2026-05-04 14:59 50.15221 9.02436 3992 ft 229 kts 197°
2026-05-04 14:59 50.12635 8.99844 3990 ft 224 kts 240°
2026-05-04 15:00 50.12234 8.97532 4006 ft 224 kts 267°
2026-05-04 15:00 50.12236 8.95093 4010 ft 225 kts 269°
2026-05-04 15:00 50.12060 8.92692 3999 ft 223 kts 257°
2026-05-04 15:01 50.11064 8.88154 3991 ft 212 kts 250°
2026-05-04 15:01 50.10558 8.86077 3979 ft 198 kts 250°
2026-05-04 15:01 50.10092 8.84141 3913 ft 183 kts 251°
2026-05-04 15:01 50.09648 8.82279 3645 ft 185 kts 250°
2026-05-04 15:02 50.09196 8.80398 3366 ft 186 kts 251°
2026-05-04 15:02 50.08763 8.78497 3048 ft 187 kts 252°
2026-05-04 15:02 50.08308 8.76591 2783 ft 189 kts 252°
2026-05-04 15:02 50.07840 8.74670 2494 ft 189 kts 250°
2026-05-04 15:03 50.07391 8.72810 2265 ft 177 kts 252°
2026-05-04 15:03 50.06981 8.71096 2039 ft 166 kts 252°
2026-05-04 15:03 50.06596 8.69488 1816 ft 150 kts 252°
2026-05-04 15:03 50.06255 8.68063 1666 ft 131 kts 251°
2026-05-04 15:04 50.05950 8.66783 1467 ft 121 kts 251°
2026-05-04 15:04 50.05659 8.65567 1322 ft 119 kts 251°
2026-05-04 15:04 50.05371 8.64358 1161 ft 120 kts 251°
2026-05-04 15:04 50.05085 8.63144 1031 ft 120 kts 250°
2026-05-04 15:05 50.04788 8.61920 866 ft 122 kts 249°
2026-05-04 15:05 50.04492 8.60701 676 ft 121 kts 251°
2026-05-04 15:05 50.04211 8.59499 488 ft 116 kts 250°
2026-05-04 15:05 50.03932 8.58321 380 ft 115 kts 250°
2026-05-04 15:06 50.03681 8.57261 355 ft 87 kts 250°
2026-05-04 15:06 50.03561 8.56782 353 ft 25 kts 248°
2026-05-04 15:06 50.03498 8.56515 354 ft 29 kts 250°
2026-05-04 15:07 50.03448 8.55965 353 ft 17 kts 278°
2026-05-04 15:07 50.03463 8.55825 356 ft 11 kts 279°
2026-05-04 15:07 50.03464 8.55816 356 ft 0 kts 279°
2026-05-04 15:09 50.03465 8.55802 355 ft 6 kts 279°
2026-05-04 15:09 50.03481 8.55721 355 ft 11 kts 306°
2026-05-04 15:10 50.03607 8.55947 351 ft 27 kts 70°
2026-05-04 15:10 50.03677 8.56243 354 ft 28 kts 70°
2026-05-04 15:10 50.03774 8.56653 351 ft 16 kts 70°
2026-05-04 15:11 50.03815 8.56826 355 ft 18 kts 70°
2026-05-04 15:11 50.03859 8.57012 352 ft 19 kts 70°
2026-05-04 15:11 50.03905 8.57205 353 ft 20 kts 69°
2026-05-04 15:11 50.03955 8.57410 356 ft 21 kts 69°
2026-05-04 15:12 50.04004 8.57613 354 ft 20 kts 70°
2026-05-04 15:12 50.04053 8.57819 352 ft 20 kts 69°
2026-05-04 15:12 50.04102 8.58023 356 ft 21 kts 70°
2026-05-04 15:12 50.04157 8.58153 355 ft 10 kts 26°
2026-05-04 15:13 50.04224 8.58196 353 ft 11 kts 21°
2026-05-04 15:13 50.04297 8.58202 350 ft 11 kts 336°
2026-05-04 15:13 50.04370 8.58154 356 ft 12 kts 340°
2026-05-04 15:13 50.04453 8.58109 350 ft 13 kts 340°
2026-05-04 15:14 50.04528 8.58066 356 ft 10 kts 340°
2026-05-04 15:14 50.04588 8.58059 349 ft 8 kts 25°
2026-05-04 15:14 50.04625 8.58102 349 ft 6 kts 40°
2026-05-04 15:14 50.04628 8.58106 349 ft 0 kts 40°
2026-05-04 15:16 50.04641 8.58123 351 ft 3 kts 44°
2026-05-04 15:16 50.04653 8.58157 355 ft 4 kts 70°
2026-05-04 15:16 50.04710 8.58396 350 ft 14 kts 70°
2026-05-04 15:17 50.04745 8.58545 358 ft 14 kts 70°
2026-05-04 15:17 50.04770 8.58649 354 ft 0 kts 69°
2026-05-04 15:19 50.04797 8.58713 355 ft 11 kts 31°
2026-05-04 15:19 50.04881 8.58687 356 ft 12 kts 340°
2026-05-04 15:19 50.04882 8.58533 353 ft 8 kts 185°
2026-05-04 15:20 50.04839 8.58561 351 ft 3 kts 160°
2026-05-04 15:20 50.04827 8.58569 355 ft 0 kts 159°